Temp
30 33 35 39 44 49 53 55 56 58 54 54 52 50 45 43 47 47 46 45 46 45 45 46 46 45 43 43 44 46 45 45 40 35 36 36 37 41 41 45 43 46 45
27 29 33 38 41 45 51 53 55 53 52 51 50 47 47 47 47 46 43 44 43 42 42 44 44 45 43 44 43 43 44 44 39 35 34 35 36 37 38 39 40 43 41
25 27 32 35 39 42 46 50 55 51 49 49 48 47 46 45 45 45 44 43 42 41 41 41 41 42 42 44 43 42 40 39 40 37 35 37 35 37 36 36 37 37 38
24 31 34 36 37 42 45 47 49 48 47 46 47 46 45 45 45 43 42 41 41 40 41 42 41 42 44 42 41 40 37 39 38 37 35 34 35 34 36 35 33 34 35
24 28 33 35 36 37 37 41 43 44 44 45 43 43 41 41 41 40 40 40 40 39 40 41 42 41 41 42 42 40 40 39 39 37 34 34 32 33 35 35 35 34 35
23 26 32 33 34 36 36 36 37 38 38 37 38 38 36 36 41 41 40 39 39 39 39 40 42 38 41 41 42 43 44 41 39 38 36 35 34 34 35 35 36 34 33
22 23 28 32 33 34 35 35 34 35 36 36 36 36 36 36 40 40 39 38 37 37 38 38 36 39 39 41 41 41 41 42 44 42 39 38 36 36 37 35 35 34 34
20 22 24 28 29 31 33 32 32 34 34 34 35 36 36 38 40 39 38 37 37 36 36 36 36 36 38 38 38 37 37 39 40 40 43 40 39 37 38 36 35 31 31
18 20 22 24 26 28 28 29 31 33 32 32 33 33 35 36 38 38 37 36 35 34 35 36 36 35 38 39 37 36 36 36 40 40 40 40 40 40 38 36 34 34 32
17 20 21 24 25 25 27 27 29 30 30 31 31 32 33 35 38 38 36 35 34 34 34 34 34 36 37 39 37 36 35 34 35 35 36 38 38 38 38 37 36 35 32
18 19 21 23 25 26 27 28 28 29 30 30 30 30 31 34 36 38 37 34 34 33 33 33 33 37 38 39 38 35 36 35 36 34 34 33 34 34 34 34 35 37 33
18 18 19 21 25 27 27 28 29 29 29 29 30 29 31 32 35 37 37 37 36 34 32 32 34 37 38 39 35 38 38 35 34 33 33 32 32 32 32 33 33 32 32
17 17 18 21 22 25 26 27 27 28 28 27 28 28 29 31 32 34 35 35 35 33 33 35 37 38 38 37 38 38 34 34 33 33 33 32 32 32 31 30 31 31 31
15 16 18 18 21 22 25 27 27 27 27 27 27 27 28 29 30 32 33 32 33 33 33 33 35 35 36 35 34 34 33 33 33 33 32 31 31 31 30 30 29 28 27
16 16 17 19 19 21 23 25 25 27 29 26 26 26 26 26 29 32 32 32 32 32 33 33 33 33 32 32 33 32 32 32 33 32 31 30 29 30 29 30 29 28 26
15 15 14 17 18 19 21 23 28 28 29 30 31 29 28 31 34 33 34 34 35 34 32 32 31 32 32 32 32 31 32 32 32 32 31 30 29 29 29 29 30 29 27
10 12 15 14 16 16 17 17 18 24 28 27 27 28 29 30 32 33 34 34 34 34 30 31 31 32 32 31 32 31 31 31 32 32 31 30 30 29 29 29 30 29 27
12 8 13 13 13 14 15 16 17 16 17 19 23 26 27 29 30 31 32 32 31 32 30 29 30 31 31 31 32 32 31 32 32 32 32 31 31 30 30 29 29 27 26
12 11 12 13 10 10 14 16 16 17 17 18 20 23 21 27 30 30 31 28 28 29 30 29 30 30 30 31 31 32 32 32 32 32 32 31 31 31 30 30 28 26 24
10 6 4 12 13 13 13 14 14 14 16 16 16 15 19 20 21 22 24 25 26 27 29 29 29 29 30 30 31 31 31 31 31 31 31 31 31 31 29 27 26 25 24
11 11 -0 12 11 10 11 11 11 12 12 13 14 14 21 14 17 20 21 22 22 24 26 28 29 29 29 30 30 31 31 30 31 30 30 30 30 28 28 27 26 25 18
10 9 9 8 9 10 8 9 10 10 10 11 12 13 17 15 16 16 19 20 20 22 25 26 28 28 28 29 29 30 30 30 29 30 29 29 28 28 27 25 22 19 17
9 9 10 9 8 3 8 9 9 9 10 10 10 10 11 12 12 14 15 15 17 19 22 24 26 26 27 26 27 29 29 29 29 29 28 27 26 25 25 22 20 18 17
9 8 8 8 7 8 8 9 9 3 5 8 9 10 10 10 11 10 10 13 12 15 19 23 24 24 25 26 27 27 27 28 28 28 27 26 25 24 21 20 19 16 16
8 7 7 8 8 7 8 7 8 8 8 8 9 9 10 10 9 10 11 10 7 11 13 15 23 23 18 18 23 22 23 26 27 27 26 25 23 21 20 18 15 13 11
7 6 6 7 6 6 6 7 8 8 7 8 8 8 9 8 9 9 8 6 6 8 10 14 20 18 18 20 19 21 23 24 24 25 24 23 20 18 17 14 13 11 9
MSLP
997.15 995.95 994.91 994.03 993.44 992.63 992.05 991.98 991.86 992.10 992.41 993.36 994.49 995.24 996.24 997.69 998.81 999.86 1001.32 1002.68 1003.81 1004.63 1005.34 1005.91 1007.23 1007.87 1009.66 1010.62 1011.33 1012.13 1013.32 1013.56 1014.65 1016.04 1016.53 1017.35 1017.42 1018.19 1018.86 1018.98 1019.60 1020.19 1020.51
995.99 994.73 993.50 992.67 992.39 991.93 990.87 990.80 990.96 991.34 991.67 992.89 993.61 994.97 996.18 997.31 998.57 999.37 1000.98 1002.65 1003.34 1004.47 1005.20 1005.55 1006.95 1007.67 1008.91 1010.31 1010.74 1011.64 1012.33 1012.57 1013.67 1015.39 1016.61 1017.40 1017.85 1018.17 1018.81 1019.28 1019.90 1020.06 1020.80
994.49 993.07 991.62 991.13 991.10 990.74 990.20 989.68 990.38 990.45 991.45 992.78 993.55 994.58 995.84 997.02 998.20 999.32 1000.53 1002.07 1003.16 1003.86 1005.11 1005.61 1006.67 1007.56 1008.34 1009.26 1010.05 1010.89 1011.64 1012.06 1012.43 1014.75 1016.42 1017.08 1017.95 1018.51 1018.86 1019.71 1020.36 1020.71 1021.11
993.38 991.04 989.72 989.33 989.57 989.43 989.36 989.06 989.63 989.85 991.47 992.63 993.97 994.09 995.75 996.88 997.97 998.92 1000.23 1001.19 1002.51 1003.47 1003.54 1005.64 1006.66 1007.65 1007.71 1008.32 1008.99 1009.65 1010.54 1011.32 1012.18 1014.20 1015.33 1017.13 1017.69 1018.55 1018.84 1019.74 1020.70 1020.90 1021.33
992.93 990.79 989.10 988.16 988.18 988.68 988.75 988.48 988.72 990.02 991.62 992.83 993.77 994.89 995.08 997.09 999.08 998.73 999.86 1000.74 1002.07 1002.94 1003.85 1005.31 1006.14 1007.06 1007.59 1007.84 1008.19 1009.34 1010.25 1011.44 1012.55 1014.00 1016.22 1016.86 1017.52 1018.23 1018.30 1018.98 1019.91 1020.48 1020.96
993.50 991.49 989.64 989.05 989.26 989.45 989.07 989.37 988.59 991.34 991.63 993.12 994.45 994.37 996.28 997.89 999.00 999.77 999.70 1000.25 1001.63 1002.98 1003.49 1004.44 1005.84 1006.35 1006.82 1007.34 1008.05 1008.82 1009.54 1010.81 1012.34 1013.10 1014.33 1014.91 1016.48 1016.79 1017.37 1018.18 1019.13 1020.30 1021.23
993.85 992.39 991.75 990.66 989.63 988.46 989.50 990.40 991.38 991.71 992.32 993.51 994.67 995.87 997.42 998.44 998.85 999.96 1000.39 1000.61 1001.60 1002.73 1003.77 1004.88 1005.76 1006.09 1006.83 1007.57 1008.19 1008.97 1009.71 1010.35 1010.81 1011.90 1013.08 1014.15 1014.97 1015.30 1016.47 1017.77 1018.10 1018.66 1019.22
995.66 993.95 991.97 990.20 989.63 990.54 991.35 992.53 993.03 993.09 993.70 994.93 996.65 997.64 998.56 999.24 999.45 1000.41 1000.54 1000.58 1001.96 1003.09 1003.76 1004.92 1005.73 1006.33 1006.78 1007.50 1008.30 1009.00 1009.72 1010.14 1010.88 1011.42 1012.16 1013.19 1013.91 1015.07 1015.96 1016.42 1017.15 1018.61 1019.64
995.27 994.20 994.17 993.69 993.70 993.91 993.78 993.78 994.45 994.08 995.80 996.58 997.86 998.77 998.93 1000.09 1000.69 1000.92 1000.87 1001.50 1001.98 1003.12 1004.16 1004.78 1005.62 1006.33 1006.60 1007.19 1007.91 1008.70 1009.45 1009.98 1010.53 1011.28 1012.25 1012.88 1013.88 1014.67 1015.51 1016.12 1017.18 1018.27 1019.47
999.80 998.81 997.89 996.99 996.71 996.11 996.72 995.87 996.44 996.22 997.74 998.14 999.24 999.80 1000.94 1000.82 1001.69 1001.68 1001.78 1002.46 1002.92 1003.70 1004.56 1005.34 1005.52 1006.28 1006.70 1007.23 1008.04 1008.64 1009.57 1010.32 1010.68 1011.54 1012.35 1013.35 1013.86 1014.54 1015.10 1015.27 1016.31 1017.27 1018.34
1002.19 1000.93 1000.34 999.54 998.70 997.72 997.82 998.08 998.41 998.94 999.18 999.24 1000.62 1001.01 1001.83 1002.47 1003.24 1002.80 1002.79 1002.99 1003.54 1004.19 1004.87 1005.61 1005.93 1006.21 1007.06 1007.52 1007.98 1008.70 1009.49 1010.31 1010.91 1011.69 1012.70 1013.37 1013.90 1014.62 1015.21 1015.67 1016.01 1016.68 1017.55
1004.20 1003.39 1002.91 1002.07 1001.45 1001.17 999.91 999.72 999.52 999.20 999.96 1000.75 1001.13 1002.04 1003.55 1004.42 1004.34 1003.48 1003.58 1004.19 1004.61 1005.22 1005.91 1006.32 1006.61 1007.00 1007.40 1007.85 1008.34 1008.84 1009.68 1010.46 1011.16 1011.78 1012.94 1013.50 1014.16 1015.11 1015.79 1016.29 1016.58 1017.07 1017.40
1006.80 1005.90 1005.34 1003.96 1003.48 1002.51 1001.55 1001.89 1001.58 1002.22 1002.99 1003.54 1003.91 1004.99 1005.78 1005.44 1005.36 1005.62 1005.53 1005.73 1005.97 1006.39 1006.50 1006.52 1007.01 1007.69 1008.08 1008.23 1008.68 1009.27 1010.32 1010.69 1011.40 1011.83 1012.43 1013.43 1014.19 1015.09 1015.82 1016.66 1017.23 1017.58 1018.14
1007.83 1007.24 1006.63 1006.06 1005.48 1004.77 1004.50 1004.52 1004.68 1005.11 1005.65 1006.04 1006.71 1006.92 1006.93 1006.61 1006.79 1007.18 1007.05 1007.20 1007.20 1007.12 1007.00 1007.14 1007.63 1007.90 1008.34 1008.79 1009.02 1010.12 1010.54 1010.77 1011.46 1011.96 1012.58 1013.66 1014.63 1015.27 1016.09 1016.63 1017.39 1018.09 1018.75
1009.17 1009.09 1008.65 1007.79 1007.61 1007.52 1007.17 1006.78 1007.19 1007.56 1007.46 1007.40 1007.32 1007.07 1007.24 1007.69 1008.27 1008.47 1008.17 1007.72 1007.76 1007.90 1007.85 1008.17 1008.43 1008.64 1008.89 1009.21 1009.94 1010.62 1010.96 1011.40 1011.70 1012.27 1012.98 1013.91 1014.60 1015.27 1016.13 1016.62 1017.25 1018.05 1018.69
1010.19 1009.68 1009.63 1009.43 1009.38 1008.90 1008.69 1008.71 1008.94 1008.96 1008.79 1008.63 1008.60 1008.56 1008.84 1008.96 1008.64 1008.82 1008.65 1008.37 1008.21 1008.31 1008.32 1008.81 1009.30 1009.52 1009.73 1010.16 1010.57 1010.84 1011.25 1011.73 1012.14 1012.53 1013.27 1013.94 1014.58 1015.17 1015.97 1016.75 1017.43 1018.06 1018.81
1011.82 1011.31 1010.73 1010.41 1010.24 1010.26 1010.10 1010.11 1010.21 1010.25 1010.31 1010.66 1010.67 1010.61 1010.13 1009.95 1009.76 1009.49 1009.06 1008.84 1008.93 1009.08 1009.35 1009.70 1009.90 1010.21 1010.48 1010.80 1011.12 1011.30 1011.51 1011.87 1012.24 1012.80 1013.38 1014.02 1014.56 1015.29 1016.02 1016.68 1017.42 1018.16 1019.19
1012.94 1012.85 1012.56 1012.45 1012.16 1011.77 1011.65 1011.61 1011.35 1010.87 1010.68 1010.79 1010.87 1010.76 1010.87 1010.72 1010.38 1009.95 1009.60 1009.63 1009.70 1009.84 1010.18 1010.50 1010.76 1010.88 1011.00 1011.19 1011.35 1011.45 1011.70 1012.02 1012.39 1012.95 1013.61 1013.98 1014.54 1015.32 1016.00 1016.68 1017.43 1018.25 1019.29
1013.93 1013.93 1013.75 1013.59 1013.50 1013.33 1013.07 1012.74 1012.47 1012.19 1012.05 1011.95 1011.66 1011.44 1011.45 1011.03 1010.78 1010.72 1010.67 1010.68 1010.67 1010.64 1010.80 1011.08 1011.24 1011.24 1011.37 1011.46 1011.46 1011.57 1011.93 1012.45 1012.80 1013.09 1013.48 1013.98 1014.50 1015.18 1016.07 1016.92 1017.52 1018.40 1019.49
1014.78 1014.86 1014.76 1014.62 1014.41 1014.20 1014.14 1013.97 1013.88 1013.76 1013.43 1013.13 1012.95 1013.10 1012.67 1012.19 1011.96 1011.97 1011.88 1011.77 1011.68 1011.59 1011.44 1011.37 1011.52 1011.67 1011.78 1011.90 1011.98 1012.21 1012.44 1012.82 1013.00 1013.24 1013.62 1014.03 1014.51 1015.29 1016.15 1016.77 1017.59 1018.76 1019.86
1014.93 1014.89 1014.87 1014.64 1014.67 1014.76 1014.75 1014.68 1014.71 1014.56 1014.43 1014.36 1014.31 1014.34 1013.72 1013.79 1013.53 1013.28 1013.07 1012.95 1012.94 1012.79 1012.47 1012.25 1012.13 1012.09 1012.10 1012.13 1012.24 1012.46 1012.62 1012.76 1013.12 1013.47 1014.01 1014.43 1015.03 1015.59 1016.27 1016.97 1017.83 1018.87 1020.35
1015.15 1015.11 1015.05 1015.00 1014.92 1014.80 1014.89 1014.92 1014.95 1015.01 1015.00 1014.97 1014.96 1014.92 1014.64 1014.43 1014.23 1014.07 1013.90 1013.79 1013.79 1013.56 1013.30 1013.02 1012.74 1012.66 1012.63 1012.62 1012.63 1012.66 1012.80 1012.93 1013.26 1013.68 1014.18 1014.68 1015.39 1015.77 1016.43 1017.16 1018.24 1019.69 1021.04
1015.35 1015.26 1015.19 1015.23 1015.25 1015.24 1015.05 1014.99 1014.98 1014.94 1014.92 1014.98 1015.10 1015.16 1015.07 1014.92 1014.80 1014.63 1014.43 1014.34 1014.17 1013.92 1013.63 1013.34 1012.98 1012.92 1012.81 1012.90 1012.86 1012.84 1013.02 1013.34 1013.61 1013.93 1014.52 1015.05 1015.50 1015.96 1016.76 1017.78 1019.03 1020.30 1021.12
1015.56 1015.49 1015.39 1015.31 1015.32 1015.33 1015.34 1015.28 1015.24 1015.24 1015.17 1015.00 1014.92 1014.95 1015.01 1015.07 1015.04 1014.93 1014.80 1014.64 1014.52 1014.24 1013.87 1013.42 1013.27 1013.26 1013.28 1013.06 1013.17 1013.25 1013.21 1013.50 1013.83 1014.18 1014.44 1015.04 1015.69 1016.50 1017.47 1018.54 1019.50 1020.42 1021.21
1015.57 1015.51 1015.49 1015.42 1015.37 1015.33 1015.29 1015.32 1015.26 1015.23 1015.18 1015.14 1015.11 1015.09 1015.02 1014.94 1014.91 1014.90 1014.84 1014.83 1014.72 1014.50 1014.23 1013.88 1013.42 1013.35 1013.45 1013.51 1013.42 1013.57 1013.59 1013.62 1013.95 1014.27 1014.72 1015.26 1016.05 1016.94 1017.90 1018.92 1019.93 1020.94 1021.73
1015.38 1015.35 1015.32 1015.29 1015.35 1015.38 1015.31 1015.23 1015.14 1015.12 1015.12 1015.07 1015.04 1015.04 1015.01 1014.99 1014.94 1014.95 1014.94 1014.96 1014.89 1014.72 1014.50 1014.02 1013.60 1013.56 1013.58 1013.57 1013.66 1013.81 1013.91 1013.90 1014.21 1014.60 1015.02 1015.72 1016.55 1017.56 1018.40 1019.36 1020.38 1021.35 1022.28
Wind_Speed
19 19 19 19 21 19 19 20 19 21 14 20 17 17 15 15 16 15 14 15 17 14 16 18 18 14 8 6 6 7 7 4 3 2 3 2 3 7 5 4 5 6 6
16 16 17 20 20 20 19 20 19 16 14 15 18 16 17 17 17 17 16 14 15 14 14 16 17 12 13 11 8 7 4 4 6 4 3 2 2 3 5 6 4 4 4
16 17 16 18 19 20 20 17 20 16 14 14 16 19 18 18 18 16 17 16 15 15 12 12 13 15 13 9 8 7 5 4 6 7 3 2 3 5 5 5 4 3 3
16 13 11 17 20 20 14 14 17 16 16 15 14 16 15 16 17 18 18 19 17 15 17 15 14 14 15 12 8 8 5 5 7 6 5 3 3 2 4 5 3 1 3
15 11 6 6 8 9 9 10 15 15 14 15 14 11 14 7 7 13 14 16 14 13 13 13 14 15 11 8 9 8 8 5 7 8 4 4 3 5 10 5 4 4 1
13 12 8 11 12 12 13 13 17 11 14 14 13 15 12 6 12 11 15 13 13 15 15 13 12 12 11 12 9 11 11 10 6 5 4 4 5 4 6 8 7 5 5
17 18 12 10 14 18 18 16 15 13 16 17 14 14 11 9 17 14 14 11 10 9 8 8 7 7 9 10 13 15 14 14 11 9 8 6 6 9 10 9 7 3 3
15 18 15 22 23 20 18 17 13 17 18 17 16 15 11 8 13 14 12 10 9 9 9 7 7 8 10 11 10 9 9 10 11 7 10 7 5 9 10 4 6 6 5
25 26 26 21 20 17 20 17 13 20 16 17 14 17 16 11 14 12 11 8 9 8 6 7 7 6 10 13 10 10 8 7 8 11 11 13 13 16 12 8 7 7 3
22 20 20 18 16 19 15 17 15 18 16 14 16 18 14 15 16 16 11 6 9 7 6 4 9 6 12 15 8 9 9 6 8 8 7 8 11 13 16 5 9 9 4
18 20 19 20 17 18 17 16 14 15 14 16 16 16 17 15 13 19 17 8 6 6 6 5 4 6 10 11 9 6 5 9 10 8 6 5 6 7 4 3 4 5 4
16 17 17 17 15 13 18 17 17 18 17 16 16 15 12 13 21 23 22 18 12 7 6 5 5 7 9 10 7 12 14 10 6 7 6 5 6 6 5 5 7 7 5
12 13 13 14 14 17 19 17 14 16 13 12 12 10 9 9 10 21 23 20 18 8 5 10 11 11 10 12 12 13 9 6 6 6 6 4 4 6 9 8 9 13 12
12 13 13 14 15 16 13 13 12 12 10 9 8 9 8 10 9 8 8 7 11 8 8 8 10 9 9 7 6 7 4 4 4 5 6 6 6 6 7 6 7 8 9
10 10 11 10 12 10 12 12 11 11 12 8 8 9 8 9 8 10 8 6 6 7 6 5 5 4 4 4 4 4 4 4 5 5 6 6 6 7 6 6 7 5 5
9 9 9 8 7 8 7 7 19 19 20 20 21 13 7 12 14 11 11 11 11 11 5 5 4 4 3 3 3 3 4 5 4 5 5 6 7 7 7 6 6 7 9
8 9 8 9 8 8 8 8 6 7 13 17 15 16 15 12 13 13 12 10 10 8 6 4 3 3 3 3 3 3 3 4 6 5 6 6 7 7 9 8 7 8 8
6 8 7 6 7 7 7 6 6 6 6 6 9 12 15 14 13 13 10 8 5 6 5 5 4 3 3 2 2 3 4 5 5 5 6 6 7 8 8 8 8 9 9
6 6 5 5 5 4 5 5 5 6 5 5 6 8 12 16 13 15 13 6 5 4 3 4 3 3 2 2 2 3 3 4 4 5 5 6 7 8 8 8 8 11 11
4 4 3 3 3 4 4 4 4 5 5 5 5 6 7 7 7 7 7 6 5 5 4 3 3 3 3 2 3 2 4 4 4 4 5 6 6 7 8 9 9 9 8
2 2 2 2 3 3 2 3 3 3 3 3 3 4 9 4 4 4 5 5 5 5 4 3 2 2 2 2 1 2 3 4 4 5 5 6 7 8 8 8 9 9 9
2 2 3 3 2 3 3 2 2 1 1 2 2 3 7 2 3 3 3 4 4 4 4 3 2 2 1 1 1 1 2 4 5 5 5 6 7 8 8 9 9 9 9
2 3 2 1 2 2 2 1 2 2 2 2 1 1 1 2 2 2 3 2 3 4 4 4 3 2 1 0 1 1 2 3 4 6 7 7 7 8 9 9 10 9 9
2 3 3 2 2 2 2 2 1 1 3 3 3 2 1 1 1 2 2 2 3 3 3 3 3 3 2 1 1 1 2 3 4 6 10 9 8 9 9 9 8 11 9
3 3 3 3 3 3 2 3 3 2 2 2 2 2 3 2 1 2 1 1 2 3 3 3 3 2 0 0 2 2 4 7 6 8 7 9 11 13 10 9 10 9 10
4 4 4 3 3 3 3 3 3 3 2 2 2 2 2 2 2 2 1 2 2 2 4 3 3 3 3 3 4 5 6 9 9 10 9 10 10 9 9 11 12 8 9
Wind_Direction
269 261 251 241 244 248 225 225 221 228 181 177 176 164 155 157 159 155 158 161 168 166 165 168 168 155 150 153 156 166 190 164 142 119 90 9 103 143 149 151 118 154 155
277 265 251 237 232 242 230 223 229 186 167 172 160 150 158 156 158 151 150 160 155 159 160 161 168 165 159 160 151 152 145 174 138 113 100 130 115 112 137 118 122 108 129
295 271 243 226 226 231 238 219 200 156 145 166 156 156 156 155 150 148 149 155 154 150 155 155 165 176 168 163 150 146 137 123 103 129 137 120 104 144 112 84 112 116 98
306 293 248 216 217 222 218 197 169 145 145 143 153 142 143 154 155 155 163 164 166 167 157 173 174 202 185 160 153 138 119 101 97 99 72 84 100 94 121 149 153 130 139
324 329 304 123 128 133 109 157 130 140 141 145 129 141 123 116 176 157 157 151 153 152 159 171 182 190 211 171 148 144 133 114 121 125 151 160 123 157 185 166 163 141 171
349 352 11 72 96 110 98 91 83 119 122 108 133 113 95 110 130 158 151 141 147 161 168 169 189 180 179 172 181 159 160 148 144 137 139 139 181 165 155 169 150 147 192
11 18 13 75 94 85 75 86 73 87 93 94 83 81 97 100 114 122 124 122 122 125 143 162 162 177 182 187 175 169 177 178 162 162 157 181 161 168 159 163 169 147 142
11 20 29 41 52 52 67 65 79 84 79 83 83 82 80 86 110 130 120 118 121 128 131 141 155 156 167 159 156 160 173 178 179 171 188 170 133 148 166 171 140 98 74
12 18 23 25 46 54 57 51 53 79 68 74 71 72 72 69 83 87 96 100 107 101 118 134 143 155 161 157 161 172 175 185 174 137 112 123 139 157 152 126 144 150 131
10 16 18 26 43 54 55 53 55 61 69 68 66 58 54 63 67 69 71 86 97 102 90 96 112 128 158 157 156 161 171 177 149 139 134 146 151 159 163 150 153 171 118
4 20 15 23 28 41 48 52 50 67 69 73 74 67 57 47 59 69 64 68 74 84 84 78 74 111 164 164 139 145 169 132 134 120 116 116 112 137 124 108 126 154 135
6 13 17 16 31 37 45 45 43 47 51 54 58 55 44 45 43 53 61 60 65 79 82 88 83 110 147 145 113 125 130 123 130 130 131 129 130 127 111 98 91 78 54
17 22 18 20 27 35 39 42 41 43 47 46 51 53 43 36 42 43 51 54 58 63 68 81 86 94 108 123 130 132 126 131 137 144 144 127 109 120 114 98 89 87 76
20 23 20 26 29 31 43 45 47 46 49 52 59 68 61 48 35 22 36 40 41 47 51 60 68 75 86 94 97 111 107 113 133 134 117 102 117 130 130 129 114 112 99
23 26 22 24 29 37 47 40 46 46 52 51 51 46 42 43 37 42 35 44 54 52 61 56 55 46 60 75 91 107 105 113 115 110 122 127 130 129 128 126 126 132 116
24 19 19 28 28 33 41 67 58 59 54 54 55 49 39 38 34 46 49 47 56 47 56 57 57 57 65 71 108 111 110 120 116 120 127 136 139 139 135 130 136 126 128
29 14 14 20 23 27 28 30 36 46 68 63 54 49 50 44 30 30 36 57 57 58 65 54 59 60 89 85 107 124 119 127 128 133 137 140 139 137 145 143 135 125 120
32 37 29 24 17 18 19 21 19 18 17 20 25 41 32 35 37 24 33 53 69 62 55 54 63 53 49 74 111 117 115 126 133 136 141 144 146 150 148 145 137 133 124
31 32 16 21 31 19 20 21 18 20 20 14 6 17 9 11 36 40 44 57 47 41 61 60 56 58 56 60 78 99 125 141 140 142 143 148 147 149 146 142 128 126 126
77 56 26 32 31 29 28 31 30 21 17 14 21 18 356 3 25 26 33 32 36 39 29 35 46 62 68 73 132 118 124 133 140 138 140 141 142 142 139 131 129 133 132
25 38 356 16 43 37 40 52 40 31 32 20 32 5 3 1 3 19 29 33 31 24 20 22 43 38 55 71 74 128 143 138 139 135 142 143 141 136 132 128 128 116 115
356 1 5 13 3 12 23 18 33 39 53 36 20 359 352 328 1 1 15 24 13 3 359 357 24 65 67 132 114 147 155 142 131 132 126 129 135 131 130 124 116 116 124
320 322 320 340 345 355 298 351 339 340 354 358 355 337 354 359 349 341 353 356 350 349 355 349 347 357 29 359 345 49 148 154 151 140 137 132 132 128 129 126 128 130 132
283 279 287 291 291 297 280 282 297 267 305 311 314 315 314 329 313 332 310 344 332 326 333 346 348 336 322 266 220 205 99 115 133 148 140 136 129 127 119 119 124 126 122
257 259 253 259 248 246 249 250 259 259 260 259 268 277 290 294 289 279 331 340 329 315 328 321 348 350 50 77 153 154 153 140 138 138 130 128 126 125 123 119 122 113 116
251 249 252 247 238 241 240 246 246 243 242 248 246 253 263 269 278 297 324 329 327 322 322 316 350 60 73 80 102 119 126 126 125 128 125 126 122 118 115 116 116 118 119